ABI298 FZAA-GOBD

Flight info

Callsign ABI298
Flight time N/A
Altitude 32000
Route BZ UG856 LV UR979 SIBEG/N0494F340 UR979 ERIDI ERIDI1A
Aircraft B77L/H-SDE1E2E3FGHIJ2J3J4J5M1RWXYZ/LB1D1

Departure

Time N/A
Airport Ndjili International Airport (FZAA)

Arrival

Time 2026-04-30 20:20
Airport Blaise Diagne International Airport (GOBD)
Time Latitude Longitude Altitude Speed Heading
2026-04-30 14:37 -4.38884 15.44504 1042 ft 0 kts 194°
2026-04-30 15:16 -4.38872 15.44507 1042 ft 2 kts 194°
2026-04-30 15:17 -4.38814 15.44522 1042 ft 2 kts 194°
2026-04-30 15:18 -4.38741 15.44543 1042 ft 2 kts 210°
2026-04-30 15:19 -4.38709 15.44573 1042 ft 2 kts 238°
2026-04-30 17:39 3.76450 0.35198 33890 ft 495 kts 291°
2026-04-30 17:42 3.88043 0.02838 33879 ft 494 kts 291°
2026-04-30 17:43 3.93834 -0.13342 33881 ft 493 kts 291°
2026-04-30 17:44 4.00755 -0.32698 33875 ft 493 kts 291°
2026-04-30 17:47 4.11084 -0.61723 33870 ft 493 kts 290°
2026-04-30 17:48 4.19105 -0.84285 33865 ft 493 kts 290°
2026-04-30 17:50 4.28287 -1.10138 33863 ft 493 kts 290°
2026-04-30 17:52 4.35159 -1.29510 33869 ft 493 kts 290°
2026-04-30 17:54 4.45269 -1.58679 33866 ft 494 kts 289°
2026-04-30 17:56 4.54017 -1.84698 33862 ft 494 kts 291°
2026-04-30 17:58 4.61010 -2.04081 33862 ft 494 kts 291°
2026-04-30 18:00 4.70286 -2.29906 33858 ft 493 kts 291°
2026-04-30 18:01 4.76079 -2.46058 33858 ft 492 kts 290°
2026-04-30 18:02 4.82999 -2.65373 33860 ft 492 kts 290°
2026-04-30 18:04 4.89929 -2.84733 33857 ft 492 kts 290°
2026-04-30 18:06 4.99156 -3.10481 33862 ft 492 kts 290°
2026-04-30 18:08 5.07262 -3.33046 33864 ft 492 kts 290°
2026-04-30 18:10 5.16503 -3.58808 33869 ft 491 kts 290°
2026-04-30 18:11 5.24575 -3.81341 33875 ft 491 kts 290°
2026-04-30 18:13 5.31883 -3.96644 33877 ft 489 kts 307°
2026-04-30 18:14 5.41921 -4.10407 33877 ft 488 kts 307°
2026-04-30 18:15 5.53923 -4.26880 33878 ft 487 kts 307°
2026-04-30 18:16 5.61899 -4.37834 33881 ft 487 kts 307°
2026-04-30 18:17 5.65914 -4.43351 33882 ft 487 kts 307°
2026-04-30 18:18 5.71907 -4.51587 33881 ft 487 kts 307°
2026-04-30 18:18 5.75890 -4.57065 33881 ft 487 kts 307°
2026-04-30 18:19 5.79874 -4.62546 33882 ft 487 kts 307°
2026-04-30 18:19 5.83884 -4.68063 33880 ft 487 kts 307°
2026-04-30 18:20 5.87868 -4.73545 33880 ft 487 kts 307°
2026-04-30 18:20 5.91874 -4.79059 33874 ft 487 kts 307°
2026-04-30 18:21 5.95852 -4.84536 33865 ft 487 kts 307°
2026-04-30 18:21 5.99830 -4.90016 33864 ft 487 kts 307°
2026-04-30 18:22 6.03833 -4.95531 33862 ft 487 kts 307°
2026-04-30 18:22 6.09810 -5.03768 33862 ft 486 kts 307°
2026-04-30 18:23 6.13782 -5.09243 33870 ft 486 kts 307°
2026-04-30 18:23 6.17777 -5.14754 33875 ft 486 kts 307°
2026-04-30 18:24 6.23736 -5.22977 33889 ft 486 kts 306°
2026-04-30 18:25 6.27697 -5.28444 33897 ft 485 kts 306°
2026-04-30 18:25 6.33652 -5.36667 33879 ft 485 kts 306°
2026-04-30 18:26 6.39605 -5.44891 33863 ft 486 kts 306°
2026-04-30 18:27 6.45563 -5.53125 33857 ft 487 kts 306°
2026-04-30 18:28 6.51553 -5.61407 33861 ft 490 kts 307°
2026-04-30 18:28 6.57554 -5.69708 33863 ft 489 kts 306°
2026-04-30 18:29 6.65559 -5.80788 33867 ft 489 kts 306°
2026-04-30 18:30 6.73551 -5.91857 33873 ft 488 kts 306°
2026-04-30 18:31 6.79450 -6.00203 33872 ft 488 kts 305°
2026-04-30 18:32 6.85267 -6.08605 33867 ft 488 kts 305°
2026-04-30 18:33 6.91079 -6.16992 33864 ft 487 kts 305°
2026-04-30 18:33 6.96887 -6.25372 33865 ft 487 kts 305°
2026-04-30 18:34 7.02689 -6.33747 33877 ft 487 kts 305°
2026-04-30 18:35 7.06548 -6.39316 33886 ft 486 kts 305°
2026-04-30 18:35 7.10402 -6.44883 33888 ft 486 kts 305°
2026-04-30 18:36 7.16186 -6.53239 33886 ft 485 kts 305°
2026-04-30 18:37 7.21989 -6.61627 33885 ft 485 kts 305°
2026-04-30 18:37 7.25830 -6.67181 33883 ft 485 kts 305°
2026-04-30 18:38 7.29666 -6.72731 33885 ft 484 kts 305°
2026-04-30 18:38 7.33528 -6.78319 33886 ft 484 kts 305°
2026-04-30 18:39 7.37359 -6.83866 33887 ft 484 kts 305°
2026-04-30 18:39 7.41190 -6.89413 33887 ft 484 kts 305°
2026-04-30 18:40 7.45043 -6.94994 33885 ft 484 kts 305°
2026-04-30 18:40 7.48872 -7.00543 33877 ft 484 kts 305°
2026-04-30 18:41 7.52726 -7.06130 33872 ft 484 kts 305°
2026-04-30 18:41 7.56553 -7.11679 33877 ft 484 kts 305°
2026-04-30 18:42 7.60380 -7.17230 33888 ft 484 kts 305°
2026-04-30 18:42 7.66128 -7.25572 33907 ft 483 kts 305°
2026-04-30 18:45 7.87193 -7.56184 33965 ft 483 kts 305°
2026-04-30 18:46 7.91006 -7.61733 33941 ft 483 kts 305°
2026-04-30 18:46 7.94819 -7.67282 33926 ft 483 kts 305°
2026-04-30 18:47 7.98656 -7.72869 33920 ft 483 kts 305°
2026-04-30 18:47 8.02467 -7.78421 33920 ft 483 kts 305°
2026-04-30 18:48 8.06303 -7.84010 33923 ft 483 kts 305°
2026-04-30 18:48 8.10112 -7.89564 33926 ft 483 kts 305°
2026-04-30 18:49 8.13922 -7.95119 33930 ft 483 kts 305°
2026-04-30 18:49 8.17756 -8.00712 33934 ft 483 kts 305°
2026-04-30 18:50 8.21561 -8.06266 33936 ft 483 kts 305°
2026-04-30 18:50 8.25367 -8.11823 33920 ft 483 kts 305°
2026-04-30 18:51 8.29199 -8.17420 33899 ft 483 kts 305°
2026-04-30 18:51 8.33006 -8.22982 33905 ft 483 kts 305°
2026-04-30 18:52 8.36813 -8.28548 33918 ft 483 kts 305°
2026-04-30 18:52 8.40651 -8.34146 33925 ft 483 kts 305°
2026-04-30 18:53 8.44464 -8.39708 33932 ft 483 kts 305°
2026-04-30 18:53 8.48284 -8.45282 33939 ft 483 kts 305°
2026-04-30 18:54 8.52125 -8.50891 33949 ft 484 kts 305°
2026-04-30 18:54 8.55939 -8.56461 33961 ft 484 kts 305°
2026-04-30 18:55 8.59758 -8.62042 33968 ft 484 kts 305°
2026-04-30 18:55 8.65496 -8.70432 33953 ft 484 kts 304°
2026-04-30 18:56 8.71235 -8.78827 33936 ft 484 kts 304°
2026-04-30 18:57 8.76970 -8.87224 33939 ft 485 kts 304°
2026-04-30 18:57 8.80814 -8.92854 33937 ft 485 kts 304°
2026-04-30 18:58 8.86553 -9.01264 33933 ft 485 kts 304°
2026-04-30 18:59 8.92296 -9.09684 33942 ft 486 kts 304°
2026-04-30 19:00 8.99946 -9.20912 33965 ft 486 kts 304°
2026-04-30 19:01 9.07692 -9.32129 33982 ft 486 kts 306°
2026-04-30 19:02 9.13681 -9.40401 33987 ft 486 kts 306°
2026-04-30 19:03 9.21626 -9.51413 34003 ft 486 kts 306°
2026-04-30 19:04 9.29601 -9.62489 33959 ft 487 kts 306°
2026-04-30 19:05 9.37583 -9.73588 33911 ft 488 kts 306°
2026-04-30 19:06 9.45550 -9.84678 33901 ft 489 kts 306°
2026-04-30 19:06 9.51544 -9.93030 33902 ft 489 kts 305°
2026-04-30 19:07 9.57541 -10.01390 33899 ft 489 kts 305°
2026-04-30 19:08 9.65530 -10.12561 33895 ft 489 kts 305°
2026-04-30 19:09 9.71503 -10.20936 33890 ft 490 kts 305°
2026-04-30 19:09 9.75505 -10.26551 33897 ft 490 kts 305°
2026-04-30 19:10 9.83456 -10.37712 33891 ft 489 kts 305°
2026-04-30 19:11 9.89421 -10.46092 33882 ft 489 kts 305°
2026-04-30 19:12 9.93416 -10.51709 33877 ft 489 kts 305°
2026-04-30 19:12 9.97381 -10.57286 33874 ft 489 kts 305°
2026-04-30 19:13 10.05320 -10.68459 33869 ft 487 kts 305°
2026-04-30 19:14 10.09265 -10.74015 33868 ft 486 kts 305°
2026-04-30 19:14 10.12881 -10.79827 33868 ft 485 kts 301°
2026-04-30 19:15 10.16368 -10.85659 33868 ft 484 kts 301°
2026-04-30 19:15 10.21619 -10.94380 33868 ft 483 kts 301°
2026-04-30 19:16 10.25153 -11.00136 33865 ft 481 kts 305°
2026-04-30 19:17 10.31237 -11.08226 33903 ft 480 kts 307°
2026-04-30 19:17 10.37347 -11.16273 33929 ft 480 kts 307°
2026-04-30 19:18 10.43442 -11.24311 33943 ft 478 kts 307°
2026-04-30 19:19 10.47511 -11.29681 33940 ft 477 kts 307°
2026-04-30 19:19 10.53574 -11.37688 33939 ft 477 kts 307°
2026-04-30 19:20 10.57600 -11.43008 33943 ft 476 kts 307°
2026-04-30 19:21 10.63644 -11.51000 33948 ft 475 kts 307°
2026-04-30 19:22 10.71550 -11.61771 33920 ft 475 kts 306°
2026-04-30 19:22 10.77365 -11.69915 33814 ft 475 kts 306°
2026-04-30 19:23 10.83184 -11.78054 33750 ft 475 kts 306°
2026-04-30 19:24 10.89008 -11.86201 33753 ft 475 kts 306°
2026-04-30 19:25 10.98705 -11.99776 33769 ft 475 kts 306°
2026-04-30 19:26 11.06467 -12.10652 33769 ft 474 kts 306°
2026-04-30 19:27 11.12259 -12.18776 33795 ft 473 kts 306°
2026-04-30 19:28 11.18052 -12.26907 33841 ft 473 kts 306°
2026-04-30 19:29 11.25738 -12.37712 33855 ft 472 kts 305°
2026-04-30 19:30 11.33231 -12.48700 33831 ft 472 kts 304°
2026-04-30 19:31 11.40726 -12.59697 33783 ft 472 kts 304°
2026-04-30 19:31 11.46340 -12.67936 33729 ft 472 kts 304°
2026-04-30 19:32 11.50076 -12.73422 33686 ft 473 kts 304°
2026-04-30 19:32 11.53837 -12.78946 33658 ft 472 kts 304°
2026-04-30 19:33 11.57574 -12.84437 33655 ft 473 kts 304°
2026-04-30 19:33 11.61310 -12.89932 33648 ft 473 kts 304°
2026-04-30 19:34 11.65044 -12.95425 33639 ft 473 kts 304°
2026-04-30 19:35 11.70659 -13.03691 33609 ft 473 kts 304°
2026-04-30 19:35 11.74418 -13.09228 33589 ft 473 kts 304°
2026-04-30 19:36 11.78154 -13.14736 33579 ft 473 kts 304°
2026-04-30 19:36 11.84286 -13.22616 33569 ft 473 kts 309°
2026-04-30 19:37 11.88439 -13.27790 33564 ft 473 kts 308°
2026-04-30 19:37 11.92600 -13.33002 33563 ft 473 kts 308°
2026-04-30 19:38 11.96743 -13.38210 33651 ft 472 kts 308°
2026-04-30 19:38 12.00877 -13.43415 33832 ft 473 kts 308°
2026-04-30 19:39 12.05031 -13.48653 33932 ft 473 kts 308°
2026-04-30 19:39 12.09152 -13.53853 33902 ft 471 kts 308°
2026-04-30 19:40 12.13255 -13.59037 33860 ft 471 kts 308°
2026-04-30 19:40 12.17385 -13.64257 33854 ft 471 kts 308°
2026-04-30 19:41 12.21499 -13.69460 33855 ft 471 kts 308°
2026-04-30 19:41 12.25602 -13.74652 33853 ft 471 kts 308°
2026-04-30 19:42 12.29535 -13.80023 33856 ft 470 kts 303°
2026-04-30 19:42 12.33236 -13.85545 33854 ft 470 kts 303°
2026-04-30 19:43 12.36945 -13.91046 33853 ft 470 kts 303°
2026-04-30 19:44 12.42515 -13.99272 33854 ft 470 kts 304°
2026-04-30 19:44 12.46248 -14.04776 33853 ft 470 kts 304°
2026-04-30 19:45 12.49965 -14.10256 33852 ft 470 kts 304°
2026-04-30 19:45 12.53689 -14.15745 33850 ft 470 kts 304°
2026-04-30 19:46 12.57409 -14.21231 33849 ft 469 kts 304°
2026-04-30 19:46 12.61144 -14.26742 33847 ft 469 kts 304°
2026-04-30 19:47 12.64859 -14.32227 33845 ft 469 kts 304°
2026-04-30 19:47 12.68577 -14.37719 33842 ft 468 kts 304°
2026-04-30 19:48 12.72274 -14.43183 33840 ft 468 kts 304°
2026-04-30 19:48 12.75978 -14.48662 33843 ft 467 kts 304°
2026-04-30 19:49 12.79664 -14.54116 33846 ft 467 kts 304°
2026-04-30 19:49 12.85195 -14.62307 33847 ft 466 kts 304°
2026-04-30 19:50 12.88875 -14.67761 33851 ft 466 kts 303°
2026-04-30 19:50 12.92572 -14.73244 33851 ft 466 kts 303°
2026-04-30 19:51 12.96250 -14.78701 33851 ft 466 kts 303°
2026-04-30 19:51 12.99920 -14.84150 33850 ft 465 kts 303°
2026-04-30 19:52 13.03593 -14.89607 33848 ft 465 kts 303°
2026-04-30 19:52 13.07274 -14.95079 33847 ft 465 kts 303°
2026-04-30 19:53 13.10935 -15.00523 33847 ft 465 kts 303°
2026-04-30 19:53 13.14587 -15.05959 33846 ft 464 kts 303°
2026-04-30 19:54 13.18243 -15.11403 33846 ft 464 kts 303°
2026-04-30 19:54 13.21793 -15.16919 33848 ft 464 kts 301°
2026-04-30 19:55 13.25221 -15.22524 33849 ft 463 kts 301°
2026-04-30 19:55 13.28647 -15.28111 33850 ft 463 kts 301°
2026-04-30 19:56 13.32096 -15.33726 33853 ft 463 kts 301°
2026-04-30 19:56 13.35508 -15.39279 33855 ft 463 kts 301°
2026-04-30 19:57 13.38956 -15.44889 33859 ft 463 kts 301°
2026-04-30 19:57 13.42386 -15.50473 33862 ft 463 kts 301°
2026-04-30 19:58 13.45807 -15.56045 33864 ft 462 kts 301°
2026-04-30 19:58 13.49215 -15.61599 33816 ft 458 kts 301°
2026-04-30 19:59 13.50915 -15.64371 33343 ft 459 kts 301°
2026-04-30 19:59 13.52626 -15.67161 32566 ft 464 kts 301°
2026-04-30 19:59 13.56043 -15.72737 31476 ft 461 kts 301°
2026-04-30 20:00 13.57738 -15.75503 30983 ft 455 kts 301°
2026-04-30 20:00 13.59408 -15.78229 30376 ft 451 kts 301°
2026-04-30 20:00 13.61070 -15.80946 29716 ft 448 kts 301°
2026-04-30 20:00 13.62737 -15.83670 29059 ft 446 kts 302°
2026-04-30 20:01 13.66005 -15.89011 27927 ft 441 kts 302°
2026-04-30 20:01 13.67623 -15.91657 27376 ft 438 kts 302°
2026-04-30 20:01 13.69255 -15.94328 26813 ft 436 kts 302°
2026-04-30 20:02 13.72447 -15.99552 25718 ft 430 kts 302°
2026-04-30 20:02 13.74032 -16.02148 25174 ft 427 kts 302°
2026-04-30 20:03 13.77195 -16.07327 23794 ft 432 kts 302°
2026-04-30 20:03 13.78788 -16.09939 22779 ft 443 kts 302°
2026-04-30 20:03 13.80432 -16.12636 22003 ft 445 kts 302°
2026-04-30 20:03 13.82069 -16.15320 21532 ft 438 kts 302°
2026-04-30 20:04 13.83659 -16.17929 21033 ft 433 kts 302°
2026-04-30 20:04 13.85258 -16.20553 20436 ft 430 kts 302°
2026-04-30 20:04 13.86846 -16.23161 19818 ft 429 kts 302°
2026-04-30 20:05 13.89989 -16.28321 18656 ft 425 kts 302°
2026-04-30 20:05 13.91555 -16.30895 18115 ft 422 kts 302°
2026-04-30 20:05 13.94646 -16.35976 17049 ft 417 kts 302°
2026-04-30 20:06 13.96181 -16.38501 16515 ft 415 kts 302°
2026-04-30 20:06 13.97711 -16.41018 15983 ft 413 kts 302°
2026-04-30 20:06 13.99219 -16.43500 15457 ft 410 kts 302°
2026-04-30 20:06 14.00727 -16.45980 14930 ft 408 kts 302°
2026-04-30 20:07 14.02247 -16.48483 14399 ft 406 kts 302°
2026-04-30 20:07 14.03719 -16.50906 13884 ft 404 kts 302°
2026-04-30 20:07 14.06687 -16.55793 12844 ft 400 kts 302°
2026-04-30 20:08 14.08163 -16.58221 12329 ft 398 kts 302°
2026-04-30 20:08 14.09610 -16.60606 11827 ft 395 kts 302°
2026-04-30 20:08 14.11069 -16.63008 11324 ft 393 kts 302°
2026-04-30 20:08 14.12487 -16.65346 11085 ft 383 kts 302°
2026-04-30 20:09 14.13879 -16.67642 10956 ft 370 kts 302°
2026-04-30 20:09 14.15223 -16.69858 10861 ft 356 kts 302°
2026-04-30 20:09 14.17739 -16.74010 10753 ft 328 kts 302°
2026-04-30 20:10 14.20065 -16.77849 10477 ft 310 kts 302°
2026-04-30 20:10 14.21206 -16.79732 10008 ft 308 kts 302°
2026-04-30 20:10 14.22350 -16.81619 9428 ft 311 kts 302°
2026-04-30 20:11 14.24595 -16.85327 8939 ft 300 kts 303°
2026-04-30 20:11 14.25703 -16.87155 8611 ft 299 kts 303°
2026-04-30 20:11 14.26787 -16.88946 8256 ft 297 kts 303°
2026-04-30 20:12 14.28967 -16.92548 7414 ft 292 kts 303°
2026-04-30 20:12 14.30048 -16.94331 7003 ft 289 kts 303°
2026-04-30 20:12 14.31100 -16.96069 6679 ft 288 kts 303°
2026-04-30 20:13 14.32160 -16.97821 6363 ft 286 kts 303°
2026-04-30 20:13 14.33216 -16.99567 6054 ft 284 kts 303°
2026-04-30 20:13 14.34250 -17.01278 5750 ft 283 kts 303°
2026-04-30 20:13 14.35292 -17.03002 5451 ft 281 kts 304°
2026-04-30 20:14 14.36307 -17.04679 5395 ft 268 kts 304°
2026-04-30 20:14 14.37493 -17.06061 5263 ft 255 kts 325°
2026-04-30 20:14 14.39063 -17.06787 5070 ft 241 kts 354°
2026-04-30 20:14 14.40722 -17.06928 4929 ft 232 kts 359°
2026-04-30 20:15 14.42285 -17.06994 4803 ft 222 kts 359°
2026-04-30 20:15 14.43825 -17.07040 4548 ft 218 kts
2026-04-30 20:15 14.45347 -17.07066 4261 ft 216 kts
2026-04-30 20:15 14.46833 -17.07080 3990 ft 213 kts
2026-04-30 20:16 14.48304 -17.07104 3732 ft 207 kts 360°
2026-04-30 20:16 14.49744 -17.07147 3428 ft 204 kts 360°
2026-04-30 20:16 14.51148 -17.07171 3120 ft 201 kts
2026-04-30 20:16 14.52546 -17.07173 2837 ft 198 kts
2026-04-30 20:17 14.53921 -17.07164 2528 ft 195 kts
2026-04-30 20:17 14.55241 -17.07130 2271 ft 180 kts
2026-04-30 20:17 14.56455 -17.07109 1968 ft 173 kts
2026-04-30 20:17 14.57637 -17.07099 1713 ft 161 kts 359°
2026-04-30 20:18 14.58723 -17.07133 1595 ft 152 kts 358°
2026-04-30 20:18 14.59785 -17.07178 1431 ft 155 kts 357°
2026-04-30 20:18 14.60869 -17.07222 1226 ft 154 kts 359°
2026-04-30 20:18 14.61941 -17.07227 1002 ft 153 kts 359°
2026-04-30 20:19 14.62995 -17.07243 784 ft 151 kts 360°
2026-04-30 20:19 14.64040 -17.07253 594 ft 146 kts 360°
2026-04-30 20:19 14.65059 -17.07264 401 ft 145 kts
2026-04-30 20:19 14.66051 -17.07274 299 ft 136 kts 359°
2026-04-30 20:20 14.66817 -17.07282 299 ft 83 kts 360°
2026-04-30 20:20 14.67218 -17.07284 300 ft 44 kts 360°
2026-04-30 20:20 14.67498 -17.07285 300 ft 35 kts 360°
2026-04-30 20:20 14.67664 -17.07263 300 ft 21 kts 18°
2026-04-30 20:21 14.67789 -17.07199 300 ft 14 kts 30°
2026-04-30 20:21 14.67839 -17.07167 300 ft 7 kts 38°
2026-04-30 20:21 14.67842 -17.07111 300 ft 11 kts 140°
2026-04-30 20:21 14.67738 -17.07094 300 ft 18 kts 179°
2026-04-30 20:22 14.67593 -17.07092 300 ft 23 kts 180°
2026-04-30 20:22 14.67421 -17.07094 300 ft 23 kts 180°
2026-04-30 20:22 14.67260 -17.07093 300 ft 21 kts 178°
2026-04-30 20:22 14.67115 -17.07090 300 ft 19 kts 179°
2026-04-30 20:23 14.66981 -17.07090 300 ft 18 kts 180°
2026-04-30 20:23 14.66831 -17.07090 300 ft 24 kts 179°
2026-04-30 20:23 14.66643 -17.07088 300 ft 28 kts 179°
2026-04-30 20:23 14.66451 -17.07086 300 ft 26 kts 179°
2026-04-30 20:24 14.66275 -17.07084 300 ft 24 kts 180°
2026-04-30 20:24 14.66115 -17.07085 300 ft 22 kts 180°
2026-04-30 20:24 14.65967 -17.07085 300 ft 20 kts 180°
2026-04-30 20:24 14.65831 -17.07083 300 ft 18 kts 178°
2026-04-30 20:25 14.65605 -17.07078 300 ft 9 kts 181°
2026-04-30 20:25 14.65553 -17.07108 300 ft 10 kts 242°
2026-04-30 20:26 14.65544 -17.07323 300 ft 15 kts 270°
2026-04-30 20:26 14.65542 -17.07510 301 ft 11 kts 261°
2026-04-30 20:26 14.65533 -17.07584 301 ft 9 kts 269°
2026-04-30 20:27 14.65533 -17.07689 301 ft 4 kts 270°
2026-04-30 20:27 14.65533 -17.07712 301 ft 1 kts 270°
2026-04-30 20:28 14.65533 -17.07715 301 ft 0 kts 270°